Вернуться в каталог

FENGYUN 1C DEB

АктивенPO
NORAD 31674·DEBRIS·🇨🇳 China

Запущен May 10, 1999 с Taiyuan Satellite Launch Center

Loading…

Ближайшие Пролёты (ближайшие 24 часа)

TLE

СвежийSource: Space-Track

Эпоха: Sep 11, 2026, 21:41 UTC

1 31674U 99025CCG 26254.90351256  .00006005  00000-0  13368-2 0  9990
2 31674  98.9186 314.4138 0024411 176.6937 183.4425 14.57148917685866

Отслеживайте FENGYUN 1C DEB в реальном времени с AllMySat

Download on the App Store